Regional Weather Roundup
Issued by NWS Spokane, WA

Home | Current Version | Previous Version | Text Only | Print | Product List | Glossary On
Versions: 1 2 3 4 5 6 7 8 9 10 11 12 13 14 15 16 17 18 19 20 21 22 23 24 25 26 27 28 29 30 31 32 33 34 35 36 37 38 39 40 41 42 43 44 45 46 47 48 49 50
931
NZUS01 KOTX 051825
RWROTX

Eastern Washington/Northern Idaho Roundup
National Weather Service, Spokane WA
1000 AM PST MON DEC 05 2016

Note: "fair" indicated few or no clouds below 12,000 feet with no
significant weather and/or obstructions to visibility.

...Northeast Washington and Northern Idaho Panhandle...

CITY           SKY/WX    TMP DP  RH WIND       PRES   REMARKS
Spokane Intl   PTSUNNY   25  20  81 SE7       30.07R WCI  17
Spokane Downto MOSUNNY   28  20  71 E3        30.11R
Coeur d Alene  MOSUNNY   28  22  78 S9        30.08S WCI  19
Deer Park      SUNNY     24  18  77 S7        30.09R WCI  16
Sandpoint      SUNNY     30  18  59 SE8       30.07S WCI  23
Bonners Ferry  FAIR      28  14  54 CALM      30.05S

...Southeast Washington and southern Idaho Panhandle...

CITY           SKY/WX    TMP DP  RH WIND       PRES   REMARKS
Walla Walla    CLOUDY    36  24  62 S7        30.13S
Pullman/Moscow SUNNY     29  22  75 S5        30.09S WCI  24
Lewiston       SUNNY     33  20  58 CALM      30.12F
Lowell           N/A     31  26  82 CALM      30.18S
Grangeville    FAIR      28  14  54 S6G16     30.06S WCI  22

...Columbia Basin...

CITY           SKY/WX    TMP DP  RH WIND       PRES   REMARKS
Ephrata        CLOUDY    27  18  69 NE8       30.09S WCI  19
Moses Lake     PTSUNNY   27  22  81 N5        30.11R WCI  22
Pasco          PTSUNNY   37  30  75 E3        30.15S
Richland       MOCLDY    37  29  72 CALM      30.14F
Hermiston      MOSUNNY   39  24  55 VRB3      30.13F
Pendleton      MOSUNNY   37  21  52 S7        30.11S

...East Slopes Cascades...

CITY           SKY/WX    TMP DP  RH WIND       PRES   REMARKS
The Dalles     PTSUNNY   35  28  75 CALM      30.15F
Yakima         CLOUDY    27  21  78 SE5       30.11F WCI  22
Ellensburg     CLOUDY    29  22  75 CALM      30.05S
Stampede Pass  SNOW      22  22 100 VRB3      29.92F VSB 1/2
Wenatchee      CLOUDY    27  22  81 CALM      30.09R
Omak           MOSUNNY   26  17  68 N5        30.12R WCI  20
Chelan           N/A     27  16  63 NW12        N/A  WCI  16
Sunnyside      CLOUDY    28  23  82 CALM      30.12F

...Southern British Columbia...

CITY           SKY/WX    TMP DP  RH WIND       PRES   REMARKS
Penticton      PTSUNNY   27  19  74 VRB2      30.13R
Castlegar      MOSUNNY   25  16  68 S6        30.12R WCI  18
Cranbrook      MOSUNNY   19  18  93 CALM      29.98
Osoyoos          N/A     28  19  69 S1          N/A
Creston          N/A     30  14  51 SE3         N/A

...Western Montana...

CITY           SKY/WX    TMP DP  RH WIND       PRES   REMARKS
Kalispell      CLOUDY    23  15  71 S7        30.00R WCI  15
Libby            N/A     27  21  80 CALM      30.02R
Missoula       CLOUDY    28   9  44 CALM      30.04

...Neighboring Cities...

CITY           SKY/WX    TMP DP  RH WIND       PRES   REMARKS
Seattle        FLURRIES  34  33  96 SE9       30.07S WCI  27
Portland       LGT SNOW  37  34  89 SW8       30.16R
Boise          SUNNY     28  18  66 SE5       30.16  WCI  23
Great Falls    LGT SNOW  13   4  67 NW8       30.03  WCI   2
Calgary        PTSUNNY    5  -4  66 N14       30.03R WCI -12



USA.gov is the U.S. government's official web portal to all federal, state and local government web resources and services.